C/2017 K1 ( PanSTARRS )

Japanese version
Home page
Updated on May 20, 2019

---------------------------------------------------------------------

* Profile

Discovery Date May 21, 2017
Magnitude 20.3 mag
Discoverer Pan-STARRS 1 telescope (Haleakala)

* Pictures

* Orbital Elements

Epoch 2018 Mar. 23.0 TT = JDT 2458200.5
T 2018 Mar. 14.23519 TT                                 MPCW
q   7.2856099            (2000.0)            P               Q
z  -0.0003380      Peri.    4.16479     -0.74396459     -0.59020673
 +/-0.0000013      Node   225.64227     -0.62504293     +0.44883642
e   1.0024624      Incl.  154.00938     -0.23630071     +0.67097085
From 110 observations 2017 May 21-2019 May 6, mean residual 0".5.

* Magnitudes Graph

        m1 = 6.5 + 5 log d + 10.0 log r

---------------------------------------------------------------------

The orbital elements are published on M.P.E.C. 2019-J142.
The magnitudes graphs are made with Comet for Windows.

---------------------------------------------------------------------

Copyright(C) Seiichi Yoshida (comet@aerith.net). All rights reserved.